STARLINK-34988

Last updated on Tue Sep 16 2025 00:02:08 GMT+0000 (Coordinated Universal Time)

1 65453U 25194V 25257.87184474 .00402483 63850-4 12458-2 0 9997 2 65453 97.5968 109.2439 0001514 66.4288 293.7144 15.91677085 3071
UTC large
Height (km)
Speed (km/s)
/
Latitude / Longitude
Inclination (degrees)
Orbital Period (minutes)
Azimuth
Elevation
Range (km)
Doppler Factor

Next 0 passes for location: London (51.5072 / 0.1276)

Sorry there are no passes over London.